User: anonymous   Login
Location: Columbia
(38.9520°N, 92.3340°W)
Time: 03:42:24
(UTC-05:00)
Language:

Iridium 52 - Orbit

View from above orbital plane
View from above orbital plane
View from above satellite
View from above satellite

Ground track
Ground track

The orbit data is extracted from the following two-line orbital elements,

1 25169U 98010A   17175.52765552 -.00000054 +00000-0 -26247-4 0  9995
2 25169 086.3951 347.3196 0002139 089.3386 270.8055 14.34214157012554
Epoch (UTC): 24 June 2017 12:39:49
Eccentricity: 0.0002139
inclination: 86.3951°
perigee height: 776 km
apogee height: 779 km
right ascension of ascending node: 347.3196°
argument of perigee: 89.3386°
revolutions per day: 14.34214157
mean anomaly at epoch: 270.8055°
orbit number at epoch: 1255

The dashed part of the orbit path shows where the satellite is in the earth's shadow,  

DLR